Weather History for Hill City, KS

Change the Weather History Date:

Friday, October 12, 2012

  Actual Average Record
Temperature  
Mean Temperature 47 °F 56 °F  
Max Temperature 55 °F 70 °F 95 °F (1975)
Min Temperature 39 °F 41 °F 19 °F (1917)
Degree Days  
Heating Degree Days 18    
Moisture  
Dew Point 39 °F    
Average Humidity 69    
Maximum Humidity 93    
Minimum Humidity 52    
Precipitation  
Precipitation 0.28 in 0.06 in 1.47 in (2008)
Month to date precipitation 0.64 0.64  
Year to date precipitation 9.35 20.40  
Sea Level Pressure  
Sea Level Pressure 30.12 in    
Wind  
Wind Speed 8 mph (East)    
Max Wind Speed 13 mph    
Max Gust Speed -    
Visibility 10 miles    
Events Rain , Thunderstorm    
T = Trace of Precipitation, MM = Missing Value Source: NWS Daily Summary

Daily Weather History Graph

Daily Weather History Graph

Search for Another Location

Airport:

Trip Planner

Search our weather history database for the weather conditions in past years. The results will help you decide how hot, cold, wet, or windy it might be!

Date:

Astronomy

Oct. 12, 2012 Rise Set
Actual Time 7:46 AM CDT 7:03 PM CDT
Civil Twilight 7:19 AM CDT 7:30 PM CDT
Nautical Twilight 6:48 AM CDT 8:01 PM CDT
Astronomical Twilight 6:17 AM CDT 8:33 PM CDT
Moon 4:32 AM CDT (10/12) 5:13 PM CDT (10/12)
Length of Visible Light 12h 11m
Length of Day
11h 17m
Waning Crescent, 10% of the Moon is Illuminated
Oct 12
Waning Crescent
Oct 15
New
Oct 21
First Quarter
Oct 29
Full
Nov 6
Last Quarter

Hourly Weather History & Observations

Time (CDT) Temp. Windchill Dew Point Humidity Pressure Visibility Wind Dir Wind Speed Gust Speed Precip Events Conditions
12:53 AM 42.1 °F 36.1 °F - N/A% 30.27 in 10.0 mi NNE 10.4 mph - N/A   Clear
1:53 AM 39.9 °F 33.9 °F - N/A% 30.27 in 10.0 mi NNE 9.2 mph - N/A   Clear
3:53 AM 39.9 °F 32.9 °F - N/A% 30.28 in 10.0 mi North 11.5 mph - N/A   Mostly Cloudy
4:53 AM 39.9 °F 32.5 °F - N/A% 30.26 in 10.0 mi North 12.7 mph - N/A   Overcast
5:36 AM 39.2 °F 33.0 °F - N/A% 30.27 in 10.0 mi NNE 9.2 mph - N/A   Overcast
5:53 AM 39.9 °F 32.9 °F - N/A% 30.27 in 10.0 mi NNE 11.5 mph - N/A   Overcast
6:53 AM 39.9 °F 33.9 °F - N/A% 30.27 in 10.0 mi NNE 9.2 mph - N/A   Overcast
7:53 AM 41.0 °F 38.0 °F 28.9 °F 62% 30.28 in 10.0 mi NNE 4.6 mph - N/A   Overcast
9:53 AM 42.1 °F 38.4 °F 28.9 °F 60% 30.29 in 10.0 mi ENE 5.8 mph - N/A   Overcast
10:53 AM 44.1 °F 40.8 °F 28.9 °F 55% 30.27 in 10.0 mi East 5.8 mph - N/A   Overcast
12:53 PM 46.9 °F - 30.9 °F 54% 30.25 in 10.0 mi South 4.6 mph - N/A   Overcast
1:53 PM 48.9 °F - 34.0 °F 56% 30.21 in 10.0 mi SSE 5.8 mph - N/A   Overcast
2:53 PM 51.1 °F - 36.0 °F 56% 30.19 in 10.0 mi SSW 6.9 mph - N/A   Overcast
3:53 PM 53.1 °F - 36.0 °F 52% 30.11 in 10.0 mi South 5.8 mph - N/A   Mostly Cloudy
4:31 PM 53.6 °F - 37.4 °F 54% 30.08 in 10.0 mi SSE 9.2 mph - N/A   Scattered Clouds
4:43 PM 53.6 °F - 37.4 °F 54% 30.07 in 10.0 mi South 8.1 mph - N/A   Mostly Cloudy
4:53 PM 54.0 °F - 37.9 °F 55% 30.07 in 10.0 mi SE 10.4 mph - N/A   Mostly Cloudy
5:07 PM 53.6 °F - 37.4 °F 54% 30.05 in 10.0 mi SE 9.2 mph - N/A   Scattered Clouds
6:38 PM 53.6 °F - 41.0 °F 62% 30.07 in 10.0 mi SSE 9.2 mph - N/A   Mostly Cloudy
6:53 PM 53.1 °F - 41.0 °F 64% 30.07 in 10.0 mi SSE 11.5 mph - N/A   Overcast
7:51 PM 51.8 °F - 42.8 °F 71% 30.00 in 10.0 mi SE 12.7 mph - N/A   Scattered Clouds
7:53 PM 51.1 °F - 42.1 °F 71% 30.02 in 10.0 mi SE 10.4 mph - N/A   Partly Cloudy
8:53 PM 48.0 °F - 43.0 °F 83% 30.03 in 10.0 mi ESE 4.6 mph - N/A   Clear
9:11 PM 48.2 °F - 42.8 °F 82% 30.00 in 10.0 mi ESE 4.6 mph - N/A   Mostly Cloudy
9:42 PM 48.2 °F - 44.6 °F 87% 30.00 in 10.0 mi East 4.6 mph - N/A   Overcast
9:53 PM 48.9 °F - 44.1 °F 83% 30.03 in 10.0 mi ESE 3.5 mph - N/A   Overcast
10:39 PM 50.0 °F - 44.6 °F 82% 30.00 in 10.0 mi Calm Calm - N/A   Overcast
10:53 PM 50.0 °F - 44.1 °F 80% 30.01 in 10.0 mi Calm Calm - N/A   Overcast
11:32 PM 50.0 °F - 44.6 °F 82% 29.97 in 6.0 mi Calm Calm - 0.02 in Rain , Thunderstorm Light Thunderstorms and Rain
11:39 PM 48.2 °F - 46.4 °F 93% 29.95 in 2.5 mi ENE 3.5 mph - 0.09 in Rain , Thunderstorm Light Thunderstorms and Rain
11:53 PM 48.9 °F - 46.9 °F 93% 29.94 in 6.0 mi ENE 4.6 mph - 0.11 in Rain , Thunderstorm Light Thunderstorms and Rain